CAPE
12 14 16 22 29 27 36 42 53 39 25 19 10 13 13 2 0 0 0 0 1 0 0 0 0 0 0 0 0 0 0 0 0 0 0 0 0 0 0 0 0 0 0 0 0 0 0 0 0 0 0 0 0 0
46 23 17 21 25 31 32 42 55 46 34 22 15 18 22 5 0 0 0 0 0 0 0 0 0 0 0 0 0 0 0 0 0 0 0 0 0 0 0 0 0 0 0 0 0 0 0 0 0 0 0 0 0 0
0 56 32 22 24 32 35 45 56 48 35 27 28 36 30 9 0 0 0 0 0 0 0 0 0 0 0 0 0 0 0 0 0 0 0 0 0 0 0 0 0 0 0 0 0 0 0 0 0 0 0 0 0 0
0 22 55 17 21 27 28 46 59 61 57 36 9 49 43 20 0 0 0 0 0 0 0 0 0 0 0 0 0 0 0 0 0 0 0 0 0 0 0 0 0 0 0 0 0 0 0 0 0 0 0 0 0 0
0 0 70 12 17 26 32 41 59 71 64 34 24 54 60 43 4 0 0 0 0 0 0 0 0 0 0 0 0 0 0 0 0 0 0 0 0 0 0 0 0 0 0 0 0 0 0 0 0 0 0 0 0 0
0 0 58 18 15 26 30 36 48 70 63 44 51 54 68 72 0 0 0 0 0 0 0 0 0 0 0 0 0 0 0 0 0 0 0 0 0 0 0 0 0 0 0 0 0 0 0 0 0 0 0 0 0 0
13 6 55 79 30 25 27 37 57 81 60 54 61 66 55 54 0 0 0 0 0 0 0 0 0 0 0 0 0 0 0 0 0 0 0 0 0 0 0 0 0 0 0 0 0 0 0 0 0 0 0 0 0 0
13 9 9 57 51 38 30 43 71 95 77 60 62 67 98 17 1 0 0 2 0 0 0 0 0 0 0 0 0 0 0 0 0 0 0 0 0 0 0 0 0 0 0 0 0 0 0 0 0 0 0 0 0 0
28 21 2 47 65 44 32 64 89 95 56 64 58 56 0 0 0 0 0 0 0 0 0 2 0 0 0 0 0 0 0 0 0 0 0 0 0 0 0 0 0 0 0 0 0 0 0 0 0 0 0 0 0 0
9 18 14 18 33 40 42 77 90 73 87 82 0 0 2 0 1 33 1 0 0 0 0 1 0 0 0 0 0 0 0 0 0 0 0 0 0 0 0 0 0 0 0 0 0 0 0 0 0 0 0 0 0 0
9 22 8 5 10 23 37 68 65 69 27 0 1 4 3 54 38 0 0 0 0 0 0 0 0 0 0 0 0 0 0 0 0 0 0 0 0 0 0 0 0 0 0 0 0 0 0 0 0 0 0 0 0 0
12 15 19 9 15 25 32 50 60 3 0 0 2 12 15 28 1 1 0 0 0 0 0 9 4 0 0 0 0 1 0 1 0 0 0 0 0 0 0 0 0 0 0 0 0 0 0 0 0 0 0 0 0 0
40 48 41 4 53 29 45 59 15 6 3 0 0 0 0 0 0 1 0 0 0 0 0 2 0 0 0 0 0 0 0 1 0 1 0 0 0 0 0 0 0 0 0 0 0 0 0 0 0 0 0 0 0 0
57 68 2 0 50 29 60 52 47 11 0 0 0 0 0 0 0 0 0 0 0 0 3 0 0 0 0 0 0 3 0 0 1 0 0 0 0 0 0 0 0 0 0 0 0 0 0 0 0 0 0 0 0 0
0 0 1 1 39 51 58 48 12 0 0 0 0 0 0 0 0 0 0 0 0 0 1 0 0 0 1 1 0 0 0 2 0 0 0 0 0 0 0 0 0 0 0 0 0 0 0 0 0 0 0 0 0 0
2 3 8 87 44 51 58 34 0 0 0 0 0 0 0 0 0 0 0 3 4 4 0 0 0 0 0 0 0 0 0 0 0 0 0 0 0 0 0 0 0 0 0 0 0 0 0 0 0 0 0 0 0 0
3 6 5 29 60 66 38 0 0 0 0 0 0 0 0 0 0 0 0 0 0 0 0 0 0 0 0 0 0 0 0 0 0 0 0 0 0 0 0 0 0 0 0 0 0 0 0 0 0 0 0 0 0 0
9 9 41 74 19 16 0 0 0 0 0 0 0 0 0 0 0 0 0 0 0 0 0 0 0 0 0 0 0 0 0 0 0 0 0 0 0 0 0 0 0 0 0 0 0 0 0 0 0 0 0 0 0 0
34 13 30 22 0 0 0 0 0 0 0 0 0 0 0 0 0 0 0 0 0 0 0 0 0 0 0 0 0 0 0 0 0 0 0 0 0 0 0 0 0 0 0 0 0 0 0 0 0 0 0 0 0 0
35 39 34 4 0 0 0 0 0 0 0 0 0 0 0 0 0 0 0 0 0 0 0 0 0 0 0 0 0 0 0 0 0 0 0 0 0 0 0 0 0 0 0 0 0 0 0 0 0 0 0 0 0 0
30 29 6 0 0 0 0 0 0 0 0 0 0 0 0 0 0 0 0 0 0 0 0 0 0 0 0 0 0 0 0 0 0 0 0 0 0 0 0 0 0 0 0 0 0 0 0 0 0 0 0 0 0 0
0 3 0 0 0 0 0 0 0 0 0 0 0 0 0 0 0 0 0 0 0 0 0 0 0 0 0 0 0 0 0 0 0 0 0 0 0 0 0 0 0 0 0 0 0 0 0 0 0 0 0 0 0 0
4 0 0 0 0 0 0 0 0 0 0 0 0 0 0 0 0 0 0 0 0 0 0 0 0 0 0 0 0 0 0 0 0 0 0 0 0 0 0 0 0 0 0 0 0 0 0 0 0 0 0 0 0 0
0 0 0 0 0 0 0 0 0 0 0 0 0 0 0 0 2 1 0 0 0 0 0 0 0 0 0 0 0 0 0 0 0 0 0 0 0 0 0 0 0 0 0 0 0 0 0 0 0 0 0 0 0 0
0 0 0 0 0 0 0 0 0 0 0 0 0 0 0 0 0 0 0 0 0 0 0 0 0 0 0 0 0 0 0 0 0 0 0 0 0 0 0 0 0 0 0 0 0 0 0 0 0 0 0 0 0 0
0 0 0 0 0 0 0 0 0 0 0 0 0 0 0 0 0 0 0 0 0 0 0 0 0 0 0 0 0 0 0 0 0 0 0 0 0 0 0 0 0 0 0 0 0 0 0 0 0 0 0 0 0 0
0 0 0 0 0 0 0 0 0 0 0 0 0 0 0 0 0 0 0 0 0 0 0 0 0 0 0 0 0 0 0 0 0 0 0 0 0 0 0 0 0 0 0 0 0 0 0 0 0 0 0 0 0 0
0 0 0 0 0 0 0 0 0 0 0 0 0 0 0 0 0 0 0 0 0 0 0 0 0 0 0 0 0 0 0 0 0 0 0 0 0 0 0 0 0 0 0 0 0 0 0 0 0 0 0 0 0 0
0 0 0 0 0 0 0 0 0 0 0 0 0 0 0 0 0 0 0 0 0 0 0 0 0 0 0 0 0 0 0 0 0 0 0 0 0 0 0 0 0 0 0 0 0 0 0 0 0 0 0 0 0 0
0 0 0 0 0 0 0 0 0 0 0 0 0 0 0 0 0 0 0 0 0 0 0 0 0 0 0 0 0 0 0 0 0 0 0 0 0 0 0 0 0 0 0 0 0 0 0 0 0 0 0 0 0 0
0 0 0 0 0 0 0 0 0 0 0 0 0 0 0 0 0 0 0 0 0 0 0 0 0 0 0 0 0 0 0 0 0 0 0 0 0 0 0 0 0 0 0 0 0 0 0 0 0 0 0 0 0 0
0 0 0 0 0 0 0 0 0 0 0 0 0 0 0 0 0 0 0 0 0 0 0 0 0 0 0 0 0 0 0 0 0 0 0 0 0 0 0 0 0 0 0 0 0 0 0 0 0 0 0 0 0 0
0 0 0 0 0 0 0 0 0 0 0 0 0 0 0 0 0 0 0 0 0 0 0 0 0 0 0 0 0 0 0 0 0 0 0 0 0 0 0 0 0 0 0 0 0 0 0 0 0 0 0 0 0 0
CIN
-1 -14 0 0 0 0 0 0 0 0 0 0 0 0 0 0 0 0 0 0 0 0 0 0 0 0 0 0 0 0 0 0 0 0 0 0 0 0 0 0 0 0 0 0 0 0 0 0 0 0 0 0 0 0
-1 -5 0 0 0 0 0 0 0 0 0 0 0 0 0 0 0 0 -1 0 0 0 -2 0 0 0 0 0 0 0 0 0 0 0 0 0 0 0 0 0 0 0 0 0 0 0 0 0 0 0 0 0 0 0
0 -1 0 -1 0 0 0 0 0 0 0 0 0 0 0 0 0 0 0 0 0 0 0 0 0 0 0 0 0 0 0 0 0 0 0 0 0 0 0 0 0 0 0 0 0 0 0 0 0 0 0 0 0 0
0 -13 -3 0 0 0 0 0 0 0 0 0 -1 0 0 0 0 0 0 0 0 0 -2 0 0 0 0 0 0 0 0 0 0 0 0 0 0 0 0 0 0 0 0 0 0 0 0 0 0 0 0 0 0 0
0 0 -7 0 0 0 0 0 0 0 0 0 0 0 0 0 0 0 0 0 0 0 0 0 0 0 0 0 0 0 0 0 0 0 0 0 0 0 0 0 0 0 0 0 0 0 0 0 0 0 0 0 0 0
0 0 -2 -5 0 0 0 0 0 0 0 0 0 0 0 0 -1 0 0 0 0 0 0 0 0 0 0 0 0 0 0 0 0 0 0 0 0 0 0 0 0 0 0 0 0 0 0 0 0 0 0 0 0 0
0 0 -2 0 -1 -4 -8 0 0 0 0 0 0 0 0 -1 0 0 0 0 0 0 0 0 0 0 0 0 0 0 0 0 0 0 0 0 0 0 0 0 0 0 0 0 0 0 0 0 0 0 0 0 0 0
0 -6 -3 0 0 0 -6 0 0 0 0 0 0 0 0 -11 -11 0 0 0 0 0 0 0 0 0 0 0 0 0 0 0 0 0 0 0 0 0 0 0 0 0 0 0 0 0 0 0 0 0 0 0 0 0
0 0 0 -1 0 0 -2 0 0 0 0 0 0 0 -3 0 0 0 0 -1 0 0 0 -5 -1 0 0 0 0 0 0 0 0 0 0 0 0 0 0 0 0 0 0 0 0 0 0 0 0 0 0 0 0 0
0 0 -2 -1 0 0 0 0 0 0 0 0 0 0 0 0 -1 -2 -18 0 0 0 0 0 0 0 0 0 0 0 0 0 0 0 0 0 0 0 0 0 0 0 0 0 0 0 0 0 0 0 0 0 0 0
-2 0 0 -7 -1 0 0 0 0 0 0 0 0 -1 -8 -5 -12 -1 0 0 0 0 0 0 0 0 0 0 0 0 0 0 0 0 0 0 0 0 0 0 0 0 0 0 0 0 0 0 0 0 0 0 0 0
-1 0 0 -1 -3 0 0 0 0 -1 0 0 -4 -16 -31 -11 -5 -1 0 0 0 0 0 0 0 0 0 0 0 0 0 0 0 0 0 0 0 0 0 0 0 0 0 0 0 0 0 0 0 0 0 0 0 0
-7 0 -1 0 0 0 0 0 0 0 -4 -2 0 0 0 0 0 0 0 -1 0 0 0 -2 -2 0 0 0 0 0 0 0 0 0 0 0 0 0 0 0 0 0 0 0 0 0 0 0 0 0 0 0 0 0
-17 0 -1 0 0 0 0 0 0 -2 0 0 0 0 0 0 0 0 0 0 0 0 0 0 0 0 0 0 0 0 0 0 0 0 0 0 0 0 0 0 0 0 0 0 0 0 0 0 0 0 0 0 0 0
0 0 0 -4 0 0 0 0 0 0 0 0 0 0 0 0 0 0 0 0 0 0 -2 0 0 0 0 0 0 -10 0 -1 0 0 0 0 0 0 0 0 0 0 0 0 0 0 0 0 0 0 0 0 0 0
0 0 0 0 0 0 0 0 0 0 0 0 0 0 0 0 0 0 0 0 -1 -1 0 0 0 0 0 0 -1 -1 -3 0 0 0 0 0 0 0 0 0 0 0 0 0 0 0 0 0 0 0 0 0 0 0
0 0 -9 0 0 0 0 0 0 0 0 0 0 0 0 0 0 0 0 0 0 -1 0 0 0 0 0 0 0 0 0 0 0 0 0 0 0 0 0 0 0 0 0 0 0 0 0 0 0 0 0 0 0 0
0 0 0 0 0 0 0 0 0 0 0 0 0 0 0 0 0 0 0 0 0 0 0 0 0 0 0 0 0 0 0 0 0 0 0 0 0 0 0 0 0 0 0 0 0 0 0 0 0 0 0 0 0 0
0 0 0 0 0 0 0 0 0 0 0 0 0 0 0 0 0 0 0 0 0 0 0 0 0 0 0 0 0 0 0 0 0 0 0 0 0 0 0 0 0 0 0 0 0 0 0 0 0 0 0 0 0 0
0 0 0 -1 0 0 0 0 0 0 0 0 0 0 0 0 0 0 0 0 0 0 0 0 0 0 0 0 0 0 0 0 0 0 0 0 0 0 0 0 0 0 0 0 0 0 0 0 0 0 0 0 0 0
0 0 0 0 0 0 0 0 0 0 0 0 0 0 0 0 0 0 0 0 0 0 0 0 0 0 0 0 0 0 0 0 0 0 0 0 0 0 0 0 0 0 0 0 0 0 0 0 0 0 0 0 0 0
-1 0 0 0 0 0 0 0 0 0 0 0 0 0 0 0 0 0 0 0 0 0 0 0 0 0 0 0 0 0 0 0 0 0 0 0 0 0 0 0 0 0 0 0 0 0 0 0 0 0 0 0 0 0
0 0 0 0 0 0 0 0 0 0 0 0 0 0 0 0 0 0 0 0 0 0 0 0 0 0 0 0 0 0 0 0 0 0 0 0 0 0 0 0 0 0 0 0 0 0 0 0 0 0 0 0 0 0
0 0 0 0 0 0 0 0 0 0 0 0 0 0 0 0 0 0 0 0 0 0 0 0 0 0 0 0 0 0 0 0 0 0 0 0 0 0 0 0 0 0 0 0 0 0 0 0 0 0 0 0 0 0
0 0 0 0 0 0 0 0 0 0 0 0 0 0 0 0 0 0 0 0 0 0 0 0 0 0 0 0 0 0 0 0 0 0 0 0 0 0 0 0 0 0 0 0 0 0 0 0 0 0 0 0 0 0
0 0 0 0 0 0 0 0 0 0 0 0 0 0 0 0 0 0 0 0 0 0 0 0 0 0 0 0 0 0 0 0 0 0 0 0 0 0 0 0 0 0 0 0 0 0 0 0 0 0 0 0 0 0
0 0 0 0 0 0 0 0 0 0 0 0 0 0 0 0 0 0 0 0 0 0 0 0 0 0 0 0 0 0 0 0 0 0 0 0 0 0 0 0 0 0 0 0 0 0 0 0 0 0 0 0 0 0
0 0 0 0 0 0 0 0 0 0 0 0 0 0 0 0 0 0 0 0 0 0 0 0 0 0 0 0 0 0 0 0 0 0 0 0 0 0 0 0 0 0 0 0 0 0 0 0 0 0 0 0 0 0
0 0 0 0 0 0 0 0 0 0 0 0 0 0 0 0 0 0 0 0 0 0 0 0 0 0 0 0 0 0 0 0 0 0 0 0 0 0 0 0 0 0 0 0 0 0 0 0 0 0 0 0 0 0
0 0 0 0 0 0 0 0 0 0 0 0 0 0 0 0 0 0 0 0 0 0 0 0 0 0 0 0 0 0 0 0 0 0 0 0 0 0 0 0 0 0 0 0 0 0 0 0 0 0 0 0 0 0
0 0 0 0 0 0 0 0 0 0 0 0 0 0 0 0 0 0 0 0 0 0 0 0 0 0 0 0 0 0 0 0 0 0 0 0 0 0 0 0 0 0 0 0 0 0 0 0 0 0 0 0 0 0
0 0 0 0 0 0 0 0 0 0 0 0 0 0 0 0 0 0 0 0 0 0 0 0 0 0 0 0 0 0 0 0 0 0 0 0 0 0 0 0 0 0 0 0 0 0 0 0 0 0 0 0 0 0
0 0 0 0 0 0 0 0 0 0 0 0 0 0 0 0 0 0 0 0 0 0 0 0 0 0 0 0 0 0 0 0 0 0 0 0 0 0 0 0 0 0 0 0 0 0 0 0 0 0 0 0 0 0
Wind_Speed
32 36 35 35 34 32 30 28 27 25 23 20 17 15 14 11 8 5 2 2 2 3 4 4 4 5 3 3 6 5 5 1 3 1 4 5 4 8 4 5 8 9 9 5 3 2 10 7 5 7 5 3 4 2
35 35 36 35 35 33 32 30 28 25 23 21 19 17 16 12 8 7 2 1 2 3 2 2 3 1 2 6 6 3 3 3 4 3 1 2 3 1 4 5 1 4 9 9 12 10 2 7 6 3 3 5 3 2
17 31 36 36 36 35 33 32 30 28 25 22 19 18 17 13 9 7 2 2 2 0 3 1 5 2 3 4 2 5 2 2 2 2 4 3 4 5 5 7 4 5 3 4 2 5 10 9 8 8 6 9 6 6
11 22 39 38 38 37 35 33 32 29 26 24 22 20 18 15 11 6 3 1 1 2 3 5 1 4 1 3 3 2 5 4 5 2 2 3 3 3 4 3 5 4 6 6 6 8 8 7 7 8 5 5 7 8
7 14 40 40 39 37 36 35 33 31 29 27 25 20 18 16 11 5 2 1 0 2 4 3 3 2 1 3 5 4 5 4 3 2 2 3 2 2 2 1 4 5 7 6 6 6 1 6 2 2 6 7 8 7
14 10 20 41 40 37 36 35 34 32 29 27 24 23 19 18 13 3 2 2 3 2 3 2 2 2 2 4 6 5 4 3 3 4 4 4 3 4 4 7 3 9 7 7 7 5 3 7 7 5 7 8 4 5
15 13 20 29 34 35 35 34 33 31 32 27 25 23 19 17 2 3 4 2 6 2 3 3 4 2 1 3 2 3 3 2 3 2 3 3 3 4 2 16 4 2 5 6 8 3 13 8 9 9 9 9 6 7
16 15 8 34 37 37 37 35 33 31 32 28 24 22 20 14 6 1 1 5 4 3 2 2 4 2 2 1 3 1 2 2 1 1 0 2 1 1 7 1 3 7 9 12 15 13 18 19 19 17 7 6 10 14
15 11 9 13 23 38 38 36 35 33 34 31 26 23 7 3 2 3 6 6 1 3 4 2 4 5 1 1 2 3 2 2 2 2 3 3 3 9 5 3 2 5 6 10 13 13 12 15 19 20 14 12 12 20
13 13 12 18 15 40 40 39 38 38 35 33 13 5 3 5 10 15 3 1 3 2 2 3 2 4 4 1 2 3 1 3 2 5 1 4 5 5 3 3 3 5 9 11 14 15 11 15 16 17 17 15 14 17
13 14 13 14 15 42 43 43 43 41 31 5 5 4 3 16 3 2 3 3 2 4 5 4 6 4 3 4 4 1 3 3 3 3 3 3 4 3 5 7 6 6 7 9 9 11 11 12 15 17 20 17 13 14
13 15 15 11 12 44 46 48 48 16 6 10 10 8 4 2 3 4 5 2 5 8 5 6 5 3 2 2 4 3 3 2 4 4 3 4 5 3 4 7 10 8 8 11 10 13 13 13 13 14 15 18 17 16
15 15 16 11 16 47 51 50 34 34 30 8 6 5 4 3 6 9 10 6 5 5 6 6 6 4 2 2 3 3 4 4 3 3 5 6 3 1 4 5 9 8 5 7 10 9 11 14 14 13 15 15 16 15
13 13 11 14 22 50 53 43 45 30 9 6 6 8 7 7 9 8 6 6 5 6 12 10 4 4 2 3 3 4 3 2 4 4 7 3 6 3 4 4 6 9 7 8 11 12 11 12 15 15 13 14 14 13
11 17 21 22 44 53 47 47 37 6 6 6 6 8 10 5 2 2 3 4 4 11 11 7 4 2 3 4 4 3 4 5 7 6 3 4 3 4 5 4 6 7 7 7 9 11 12 13 13 14 14 13 12 12
19 25 15 44 54 51 48 35 8 5 4 5 3 4 1 5 3 3 4 8 8 10 5 3 5 5 3 3 4 6 5 9 6 4 4 4 5 4 4 5 6 6 6 8 9 9 10 12 13 14 13 10 10 9
12 9 47 54 53 49 39 12 5 5 4 5 1 1 3 3 5 5 6 7 9 10 4 4 6 5 4 3 5 6 7 4 4 4 4 4 3 5 6 6 6 7 7 8 10 11 10 10 10 9 14 14 12 9
4 22 51 51 35 28 5 6 5 5 4 2 4 4 2 2 6 3 3 4 5 3 3 4 5 3 6 7 5 4 3 2 4 4 5 4 4 6 5 6 7 7 7 7 8 10 10 12 11 9 11 11 10 10
13 26 41 39 18 8 7 3 2 5 2 2 2 1 3 3 1 4 5 4 3 3 6 3 4 5 5 4 4 3 3 4 5 4 3 3 5 6 7 6 7 8 8 7 7 6 7 10 8 7 7 7 7 7
42 41 41 26 9 6 6 3 2 6 4 3 2 3 3 3 3 3 6 3 3 4 2 3 7 4 5 4 4 3 4 5 3 2 2 4 4 4 6 6 5 7 7 7 6 9 6 6 5 5 5 6 6 7
36 24 22 9 4 6 6 3 3 2 4 3 3 3 3 2 2 3 3 2 2 4 4 6 3 4 3 1 3 4 5 5 6 6 5 4 3 4 4 5 5 4 4 4 4 6 7 6 6 5 5 4 6 5
10 15 4 5 6 5 5 2 5 3 4 3 3 3 4 2 3 2 3 2 4 6 6 4 4 5 5 5 6 6 4 6 4 3 7 5 4 3 4 4 3 4 4 4 4 4 5 5 4 4 4 5 4 5
16 6 5 5 7 5 2 2 4 3 5 3 1 3 2 2 2 3 2 4 5 5 5 6 6 6 7 6 5 5 7 7 5 6 6 4 4 4 4 5 4 4 4 4 3 4 4 7 7 5 3 3 3 2
11 7 5 5 5 5 3 3 2 4 4 2 3 3 3 3 4 2 5 4 5 3 7 9 7 5 1 3 7 7 7 6 6 5 4 3 4 5 4 4 4 4 4 4 4 3 4 4 8 4 4 4 3 3
9 5 6 6 2 6 5 4 3 3 4 3 4 2 3 3 4 5 5 5 5 6 8 6 7 9 9 5 4 5 7 7 6 7 4 5 4 2 3 3 4 5 3 3 3 3 4 4 5 5 6 5 5 5
7 3 3 4 3 4 6 6 5 5 5 4 4 3 2 3 3 8 5 5 4 5 7 9 8 6 7 7 4 4 6 6 5 4 3 5 6 5 4 3 3 5 2 3 2 4 5 5 5 7 7 9 10 7
5 2 1 1 2 4 5 4 3 4 4 6 6 5 4 4 8 6 3 4 3 4 5 6 7 7 6 5 5 4 4 7 7 5 3 5 5 5 5 5 6 6 3 3 4 5 6 5 5 6 6 7 5 4
3 4 6 4 3 1 5 4 5 6 5 4 7 6 10 10 7 4 6 3 4 4 4 3 4 5 4 4 4 4 4 3 4 3 2 2 4 4 5 5 6 13 6 5 5 5 5 5 5 6 6 6 8 6
3 2 3 3 3 2 5 6 7 5 6 8 7 5 6 5 3 3 3 3 4 4 4 4 3 3 3 3 2 4 4 7 9 8 9 5 3 5 5 5 5 4 4 5 8 7 7 6 6 5 7 5 5 5
3 3 4 3 5 5 4 4 2 2 2 2 1 2 2 3 3 1 2 3 5 6 6 5 5 6 5 6 4 5 4 5 7 8 7 9 9 4 5 5 5 5 4 4 5 5 7 4 4 3 4 4 3 4
5 3 3 2 4 2 0 1 2 2 2 1 1 2 3 3 4 3 5 4 4 4 4 5 5 5 6 7 8 8 8 8 11 11 9 6 5 5 5 6 5 5 5 5 5 5 5 4 4 6 6 7 8 7
2 4 4 3 3 2 1 1 1 2 1 1 2 1 3 2 3 4 5 7 5 5 12 9 7 9 12 10 9 9 11 6 9 12 15 10 10 8 6 5 5 5 5 6 6 5 6 8 6 6 7 9 8 8
2 2 3 3 2 0 2 3 1 1 2 1 4 5 5 5 9 5 2 6 10 13 13 12 11 10 10 12 14 11 14 10 11 15 17 19 18 13 8 6 6 7 8 7 7 7 9 10 9 9 8 9 10 10
Wind_Direction
195 204 203 202 200 200 201 199 200 196 197 198 201 209 195 193 187 149 248 223 259 222 261 218 185 138 120 137 152 168 84 331 47 110 150 215 195 216 154 167 177 167 155 194 98 139 269 138 107 179 223 310 280 228
208 205 201 202 198 198 199 198 196 192 191 190 193 202 189 189 188 164 206 167 270 252 277 288 293 279 138 160 137 157 150 159 198 96 257 101 193 125 161 226 6 244 191 181 187 210 229 207 219 200 195 237 271 253
253 218 204 200 198 196 197 195 192 189 187 184 186 194 184 186 189 172 180 159 197 245 299 303 232 189 150 195 179 125 251 186 155 160 160 193 228 133 173 233 204 248 160 207 122 240 244 232 258 248 230 242 256 229
269 243 205 199 198 196 193 194 189 186 184 177 179 188 182 176 168 145 153 188 252 99 200 259 321 238 119 129 173 143 132 93 101 93 146 157 182 168 222 262 197 186 129 187 262 286 288 267 231 259 287 262 269 257
282 307 210 199 197 194 191 188 184 181 181 178 174 179 180 167 150 108 113 208 267 170 195 254 300 299 332 133 173 141 134 131 134 87 109 235 227 164 213 25 231 191 186 178 227 234 188 261 292 233 246 252 252 256
247 304 247 202 192 190 189 186 179 176 173 173 173 165 173 155 137 104 4 229 190 221 79 317 310 350 6 128 136 142 146 134 147 167 203 234 247 176 202 239 222 192 203 208 266 25 248 286 286 262 275 296 273 248
248 269 241 205 189 188 183 179 173 169 166 166 168 154 156 151 112 149 180 217 157 100 109 309 297 281 327 87 46 64 46 142 141 192 224 239 216 176 264 259 232 299 252 239 247 306 290 259 263 264 210 241 241 242
243 247 307 199 191 185 176 171 167 164 155 154 157 142 139 119 89 347 286 113 102 95 104 176 258 348 318 92 102 20 93 65 147 209 207 221 43 238 255 341 126 216 242 256 260 234 253 269 279 275 252 255 253 263
231 239 236 226 222 177 169 165 159 155 144 147 135 117 92 78 172 209 138 96 84 137 183 203 192 216 49 16 91 54 74 115 8 206 248 139 198 220 210 72 8 300 249 264 265 257 262 264 269 276 265 254 247 270
231 223 244 226 271 171 165 158 149 140 138 128 107 83 145 215 146 120 35 54 7 309 209 215 119 219 124 169 343 82 54 168 159 234 87 226 256 306 5 342 291 324 310 310 299 291 284 276 274 275 265 262 252 258
233 233 242 250 269 169 158 146 140 135 127 106 123 123 159 156 84 67 144 151 229 224 207 192 179 157 220 130 155 190 181 184 204 176 190 249 262 250 317 311 305 297 298 299 281 286 287 286 287 282 275 264 246 237
235 231 241 254 258 161 146 141 141 131 124 131 116 102 99 113 143 160 193 278 194 218 196 157 157 153 171 113 99 166 168 190 233 137 208 252 235 216 309 300 300 309 320 318 311 301 300 295 290 288 287 276 259 245
241 247 229 243 217 149 142 144 137 128 120 99 85 114 157 158 171 196 185 201 207 183 192 139 131 135 80 63 92 145 177 217 131 204 227 221 159 269 284 282 284 281 296 290 294 296 301 301 299 287 289 287 280 256
243 244 244 272 198 144 144 139 140 130 95 98 138 132 189 187 222 190 181 168 182 155 140 132 110 131 136 127 133 180 185 187 228 234 230 176 188 226 275 273 284 310 333 318 308 312 315 313 307 303 294 290 284 270
260 254 264 252 164 144 142 146 146 93 99 127 137 189 196 204 197 177 177 129 123 141 137 114 110 130 130 157 193 136 172 231 222 226 205 182 188 263 271 273 290 309 322 320 314 313 324 320 313 313 310 303 292 285
324 297 220 161 148 141 144 143 110 73 73 116 125 112 148 143 151 174 164 129 145 145 118 90 130 138 149 158 162 198 198 221 233 190 167 152 209 233 263 289 289 290 304 313 309 315 330 321 319 312 309 318 324 307
2 271 147 143 138 137 133 114 88 53 117 121 202 183 151 101 142 157 160 146 158 153 139 139 137 173 108 166 214 195 212 214 170 147 149 172 218 261 271 287 297 299 306 312 315 317 323 320 311 326 343 338 333 329
338 118 122 128 123 116 57 47 88 107 133 190 149 172 147 89 133 138 122 145 144 141 132 155 120 130 185 193 222 217 171 136 131 160 174 202 238 260 259 272 287 291 284 284 299 307 314 324 329 340 332 335 336 343
129 135 131 135 119 93 93 87 37 109 150 144 122 92 100 114 19 107 106 87 80 83 99 52 124 203 211 202 199 193 160 167 181 185 187 228 259 273 278 269 273 282 277 276 287 295 302 300 297 318 329 332 330 331
142 147 147 136 77 77 86 70 39 96 134 172 105 125 91 93 101 115 122 112 107 112 127 180 216 195 190 209 183 169 179 173 126 138 266 263 254 258 261 258 262 274 284 282 272 282 286 293 295 319 334 326 341 334
139 156 113 80 71 61 88 130 61 112 130 111 133 95 87 84 93 147 135 143 126 190 216 222 183 218 206 237 197 190 184 147 173 178 203 251 258 227 266 270 263 273 267 275 274 283 291 290 296 306 313 323 331 325
109 110 86 50 75 66 73 357 119 162 75 115 120 102 114 111 127 154 116 204 223 222 202 167 179 190 201 212 220 213 169 172 199 221 250 246 265 271 268 251 282 280 276 267 262 270 276 276 278 275 303 310 341 331
101 83 64 65 87 72 78 345 83 23 108 156 110 97 123 136 180 147 187 214 242 224 182 197 186 191 206 209 193 212 195 192 206 219 238 220 227 240 254 264 237 252 280 286 258 284 289 298 293 287 271 288 300 308
48 62 65 71 74 97 96 59 66 102 92 109 139 145 179 138 149 212 245 234 234 167 192 209 191 195 175 189 208 212 206 192 207 232 211 195 250 261 233 247 254 249 235 268 288 295 299 303 321 313 294 288 290 296
77 29 87 73 55 111 113 132 104 87 114 151 138 144 182 154 167 213 232 246 220 199 197 183 189 203 215 224 210 211 190 177 191 218 216 192 209 263 272 262 263 258 256 278 310 321 312 316 317 318 320 311 304 300
76 24 84 152 149 126 157 130 156 143 130 144 194 114 155 128 127 239 224 216 217 188 186 190 185 187 220 207 186 194 206 185 157 186 231 186 187 178 202 234 289 298 244 208 261 298 302 305 311 321 320 321 327 321
117 154 29 267 107 127 104 87 130 121 152 165 167 162 142 180 232 245 255 217 204 213 182 166 171 190 198 181 201 208 171 165 178 189 168 181 186 184 177 202 239 237 230 247 266 270 274 282 290 293 296 306 304 296
136 167 140 170 122 90 114 130 155 177 173 166 134 174 182 197 230 222 209 208 170 128 134 163 189 187 169 187 182 152 168 154 110 84 41 288 234 218 216 227 241 263 261 244 249 257 251 265 282 288 290 289 298 305
103 187 133 95 99 146 198 186 197 196 151 164 176 181 214 218 232 213 214 169 142 139 149 171 190 142 119 85 117 157 148 152 153 182 212 228 261 259 207 217 230 239 246 254 272 257 247 259 266 268 275 273 274 284
245 167 98 121 157 209 236 182 192 127 152 158 135 22 342 283 252 224 136 149 163 190 195 183 157 166 170 159 178 220 213 196 202 189 195 217 227 205 180 202 219 229 223 227 250 271 285 281 296 302 299 298 289 292
132 113 81 141 215 247 174 115 51 78 99 128 351 167 230 290 298 218 205 199 166 146 158 197 195 188 175 190 196 205 226 209 217 221 224 233 239 226 205 211 215 210 211 218 227 237 249 268 265 276 281 282 286 293
108 173 139 153 256 293 45 91 118 95 46 108 273 345 328 19 263 266 211 160 164 199 226 215 192 212 209 217 216 218 221 204 185 205 213 220 232 229 218 217 218 215 218 221 223 229 234 238 243 249 260 271 275 278
79 64 48 73 45 329 186 130 154 93 11 238 244 200 208 201 229 245 261 205 193 204 217 221 219 224 211 198 209 216 218 226 215 206 208 209 209 209 207 207 205 213 220 223 225 226 235 237 245 249 249 255 263 268